EZY37JU EGKK-EGJJ

Flight info

Callsign EZY37JU
Flight time N/A
Altitude 22000
Route NOVMA L620 SAM N63 LELNA
Aircraft A320/M-SDE3FGHIRWY/LB1

Departure

Time 2026-04-14 16:05
Airport London Gatwick Airport (EGKK)

Arrival

Time N/A
Airport Jersey Airport (EGJJ)
Time Latitude Longitude Altitude Speed Heading
2026-04-14 15:10 51.15565 -0.17818 199 ft 0 kts 347°
2026-04-14 15:10 51.15565 -0.17817 208 ft 0 kts 347°
2026-04-14 15:11 51.15565 -0.17818 208 ft 0 kts 347°
2026-04-14 15:14 51.15565 -0.17817 208 ft 0 kts 347°
2026-04-14 15:42 51.15556 -0.17815 218 ft 3 kts 348°
2026-04-14 15:42 51.15537 -0.17808 211 ft 2 kts 348°
2026-04-14 15:43 51.15519 -0.17804 214 ft 3 kts
2026-04-14 15:43 51.15502 -0.17814 211 ft 3 kts 49°
2026-04-14 15:43 51.15492 -0.17840 214 ft 3 kts 73°
2026-04-14 15:43 51.15489 -0.17857 216 ft 1 kts 76°
2026-04-14 15:44 51.15489 -0.17860 216 ft 0 kts 76°
2026-04-14 15:46 51.15491 -0.17847 215 ft 6 kts 76°
2026-04-14 15:46 51.15499 -0.17785 213 ft 5 kts 78°
2026-04-14 15:46 51.15507 -0.17731 211 ft 5 kts 78°
2026-04-14 15:47 51.15513 -0.17686 211 ft 4 kts 78°
2026-04-14 15:47 51.15518 -0.17649 212 ft 3 kts 78°
2026-04-14 15:47 51.15522 -0.17620 216 ft 2 kts 78°
2026-04-14 15:47 51.15525 -0.17594 208 ft 5 kts 77°
2026-04-14 15:48 51.15533 -0.17543 216 ft 4 kts 77°
2026-04-14 15:48 51.15533 -0.17542 215 ft 0 kts 77°
2026-04-14 15:50 51.15537 -0.17515 211 ft 6 kts 77°
2026-04-14 15:50 51.15530 -0.17448 215 ft 9 kts 124°
2026-04-14 15:51 51.15466 -0.17410 206 ft 11 kts 168°
2026-04-14 15:51 51.15385 -0.17382 209 ft 13 kts 167°
2026-04-14 15:51 51.15305 -0.17354 216 ft 11 kts 168°
2026-04-14 15:51 51.15235 -0.17305 209 ft 12 kts 143°
2026-04-14 15:52 51.15184 -0.17233 206 ft 10 kts 118°
2026-04-14 15:52 51.15188 -0.17142 218 ft 7 kts 78°
2026-04-14 15:52 51.15196 -0.17077 210 ft 3 kts 78°
2026-04-14 15:52 51.15200 -0.17049 217 ft 1 kts 78°
2026-04-14 15:53 51.15201 -0.17038 217 ft 1 kts 78°
2026-04-14 15:53 51.15202 -0.17036 207 ft 0 kts 78°
2026-04-14 15:58 51.15204 -0.17017 209 ft 4 kts 77°
2026-04-14 15:58 51.15209 -0.16984 206 ft 3 kts 78°
2026-04-14 15:58 51.15212 -0.16958 206 ft 2 kts 77°
2026-04-14 15:59 51.15215 -0.16939 209 ft 1 kts 77°
2026-04-14 15:59 51.15217 -0.16927 216 ft 1 kts 76°
2026-04-14 15:59 51.15217 -0.16926 216 ft 0 kts 76°
2026-04-14 16:02 51.15222 -0.16868 206 ft 6 kts 90°
2026-04-14 16:02 51.15221 -0.16864 206 ft 0 kts 94°
2026-04-14 16:03 51.15218 -0.16843 206 ft 5 kts 110°
2026-04-14 16:03 51.15201 -0.16810 215 ft 4 kts 140°
2026-04-14 16:03 51.15174 -0.16790 208 ft 5 kts 164°
2026-04-14 16:03 51.15135 -0.16807 207 ft 7 kts 213°
2026-04-14 16:04 51.15114 -0.16860 210 ft 3 kts 252°
2026-04-14 16:04 51.15113 -0.16869 211 ft 0 kts 256°
2026-04-14 16:04 51.15110 -0.16891 211 ft 13 kts 256°
2026-04-14 16:04 51.15016 -0.17541 211 ft 106 kts 258°
2026-04-14 16:05 51.14799 -0.19105 254 ft 173 kts 253°
2026-04-14 16:05 51.14531 -0.21026 1046 ft 182 kts 253°
2026-04-14 16:05 51.14249 -0.23047 1947 ft 189 kts 252°
2026-04-14 16:05 51.13954 -0.25164 2391 ft 207 kts 252°
2026-04-14 16:06 51.13624 -0.27526 2906 ft 225 kts 253°
2026-04-14 16:06 51.13287 -0.29973 3738 ft 228 kts 253°
2026-04-14 16:06 51.12944 -0.32460 4017 ft 237 kts 254°
2026-04-14 16:06 51.12578 -0.35107 4012 ft 248 kts 254°
2026-04-14 16:07 51.12208 -0.37790 4010 ft 249 kts 254°
2026-04-14 16:07 51.11834 -0.40479 4227 ft 254 kts 254°
2026-04-14 16:07 51.11387 -0.43208 5281 ft 252 kts 245°
2026-04-14 16:07 51.10632 -0.45727 6271 ft 253 kts 242°
2026-04-14 16:08 51.09841 -0.48271 7179 ft 257 kts 242°
2026-04-14 16:08 51.09053 -0.50798 8052 ft 261 kts 241°
2026-04-14 16:08 51.08231 -0.53418 8930 ft 266 kts 242°
2026-04-14 16:08 51.07402 -0.56061 9803 ft 270 kts 242°
2026-04-14 16:09 51.06556 -0.58765 10578 ft 275 kts 242°
2026-04-14 16:09 51.05704 -0.61505 11390 ft 279 kts 245°
2026-04-14 16:09 51.05116 -0.64463 12198 ft 283 kts 257°
2026-04-14 16:09 51.04712 -0.67542 13026 ft 286 kts 258°
2026-04-14 16:10 51.04298 -0.70650 13839 ft 289 kts 258°
2026-04-14 16:10 51.03879 -0.73777 14545 ft 293 kts 258°
2026-04-14 16:10 51.03450 -0.76975 15244 ft 295 kts 258°
2026-04-14 16:10 51.03019 -0.80173 15975 ft 297 kts 259°
2026-04-14 16:11 51.02585 -0.83393 16711 ft 299 kts 259°
2026-04-14 16:11 51.02147 -0.86619 17480 ft 300 kts 260°
2026-04-14 16:11 51.01707 -0.89863 18260 ft 300 kts 260°
2026-04-14 16:11 51.01265 -0.93106 18952 ft 300 kts 261°
2026-04-14 16:12 51.00823 -0.96338 19642 ft 299 kts 261°
2026-04-14 16:12 51.00380 -0.99562 20362 ft 298 kts 261°
2026-04-14 16:12 50.99941 -1.02755 21084 ft 295 kts 261°
2026-04-14 16:12 50.99502 -1.05927 21828 ft 292 kts 261°
2026-04-14 16:13 50.99068 -1.09052 22588 ft 289 kts 261°
2026-04-14 16:13 50.98632 -1.12209 23022 ft 299 kts 261°
2026-04-14 16:13 50.98185 -1.15485 23105 ft 317 kts 261°
2026-04-14 16:13 50.97703 -1.19011 23115 ft 336 kts 261°
2026-04-14 16:14 50.97190 -1.22730 23115 ft 355 kts 260°
2026-04-14 16:14 50.96640 -1.26628 23123 ft 367 kts 258°
2026-04-14 16:14 50.95734 -1.30449 23111 ft 374 kts 246°
2026-04-14 16:14 50.94277 -1.33901 23110 ft 381 kts 233°
2026-04-14 16:15 50.92324 -1.36788 23110 ft 388 kts 220°
2026-04-14 16:15 50.89973 -1.38963 23123 ft 394 kts 211°
2026-04-14 16:15 50.87517 -1.40914 23107 ft 394 kts 211°
2026-04-14 16:15 50.85064 -1.42856 23111 ft 394 kts 211°
2026-04-14 16:16 50.82617 -1.44797 23109 ft 394 kts 211°
2026-04-14 16:16 50.80171 -1.46744 23123 ft 394 kts 212°
2026-04-14 16:16 50.77719 -1.48697 23118 ft 394 kts 211°
2026-04-14 16:16 50.75275 -1.50639 23113 ft 394 kts 211°
2026-04-14 16:17 50.72818 -1.52589 23092 ft 394 kts 211°
2026-04-14 16:17 50.70367 -1.54534 23102 ft 394 kts 211°
2026-04-14 16:17 50.67946 -1.56450 23092 ft 394 kts 211°
2026-04-14 16:17 50.65466 -1.58411 23087 ft 394 kts 211°
2026-04-14 16:18 50.63013 -1.60353 23088 ft 397 kts 212°
2026-04-14 16:18 50.60575 -1.62284 23102 ft 396 kts 211°
2026-04-14 16:18 50.58123 -1.64210 23092 ft 395 kts 211°
2026-04-14 16:18 50.55656 -1.66141 23090 ft 395 kts 211°
2026-04-14 16:19 50.53187 -1.68076 23093 ft 395 kts 211°
2026-04-14 16:19 50.50732 -1.70003 23103 ft 395 kts 211°
2026-04-14 16:19 50.48267 -1.71937 23096 ft 395 kts 211°
2026-04-14 16:19 50.45811 -1.73862 23092 ft 395 kts 211°
2026-04-14 16:20 50.43350 -1.75786 23091 ft 395 kts 211°
2026-04-14 16:20 50.40885 -1.77706 23099 ft 395 kts 211°
2026-04-14 16:20 50.38421 -1.79623 23099 ft 396 kts 211°
2026-04-14 16:20 50.35959 -1.81541 23099 ft 395 kts 211°
2026-04-14 16:21 50.33493 -1.83460 23095 ft 395 kts 211°
2026-04-14 16:21 50.31028 -1.85379 23094 ft 395 kts 211°
2026-04-14 16:21 50.28567 -1.87295 23090 ft 396 kts 211°
2026-04-14 16:21 50.26101 -1.89211 23087 ft 396 kts 211°
2026-04-14 16:22 50.23631 -1.91123 23085 ft 396 kts 211°
2026-04-14 16:22 50.21177 -1.93015 23092 ft 390 kts 211°
2026-04-14 16:22 50.18770 -1.94861 22769 ft 381 kts 211°
2026-04-14 16:22 50.16407 -1.96674 22337 ft 377 kts 211°
2026-04-14 16:23 50.14854 -1.97868 22020 ft 374 kts 211°
2026-04-14 16:23 50.11746 -2.00268 21420 ft 370 kts 211°
2026-04-14 16:23 50.10222 -2.01446 21107 ft 368 kts 211°
2026-04-14 16:23 50.07936 -2.03210 20653 ft 366 kts 211°
2026-04-14 16:24 50.05660 -2.04962 20221 ft 363 kts 211°
2026-04-14 16:24 50.03402 -2.06696 20068 ft 362 kts 211°
2026-04-14 16:24 50.01118 -2.08446 20092 ft 362 kts 211°
2026-04-14 16:24 49.98862 -2.10114 20077 ft 364 kts 206°
2026-04-14 16:25 49.96418 -2.11290 20085 ft 369 kts 197°
2026-04-14 16:25 49.93911 -2.12138 20097 ft 369 kts 197°
2026-04-14 16:25 49.91410 -2.12992 20094 ft 369 kts 197°
2026-04-14 16:25 49.88894 -2.13852 20087 ft 369 kts 197°
2026-04-14 16:26 49.86392 -2.14706 20091 ft 369 kts 197°
2026-04-14 16:26 49.83877 -2.15565 19921 ft 369 kts 197°
2026-04-14 16:26 49.81377 -2.16416 19670 ft 366 kts 197°
2026-04-14 16:26 49.78905 -2.17252 19283 ft 362 kts 196°
2026-04-14 16:27 49.76419 -2.18089 19064 ft 361 kts 196°
2026-04-14 16:27 49.73989 -2.18910 18661 ft 364 kts 196°
2026-04-14 16:27 49.71474 -2.19767 17827 ft 373 kts 196°
2026-04-14 16:27 49.68938 -2.20710 16999 ft 378 kts 198°
2026-04-14 16:28 49.66386 -2.21803 16189 ft 382 kts 200°
2026-04-14 16:28 49.63827 -2.22981 15417 ft 386 kts 200°
2026-04-14 16:28 49.61239 -2.24199 14654 ft 389 kts 200°
2026-04-14 16:28 49.58641 -2.25412 13910 ft 391 kts 200°
2026-04-14 16:29 49.56029 -2.26607 13077 ft 393 kts 199°
2026-04-14 16:29 49.53402 -2.27785 12267 ft 392 kts 199°
2026-04-14 16:29 49.50780 -2.28944 11473 ft 391 kts 199°
2026-04-14 16:29 49.48170 -2.30092 10704 ft 388 kts 198°
2026-04-14 16:30 49.45578 -2.31227 9937 ft 385 kts 198°
2026-04-14 16:30 49.43017 -2.32352 9110 ft 381 kts 198°
2026-04-14 16:30 49.40488 -2.33465 8302 ft 376 kts 198°
2026-04-14 16:30 49.37983 -2.34574 7513 ft 371 kts 198°
2026-04-14 16:31 49.35517 -2.35667 6742 ft 366 kts 198°
2026-04-14 16:31 49.33084 -2.36742 5948 ft 361 kts 197°
2026-04-14 16:31 49.30695 -2.37797 5151 ft 355 kts 197°
2026-04-14 16:31 49.28337 -2.38834 4373 ft 350 kts 197°
2026-04-14 16:32 49.26048 -2.39836 3960 ft 334 kts 197°
2026-04-14 16:32 49.23830 -2.40546 3517 ft 324 kts 182°
2026-04-14 16:32 49.21669 -2.39776 2999 ft 321 kts 153°
2026-04-14 16:32 49.20045 -2.37497 2492 ft 320 kts 124°
2026-04-14 16:33 49.19435 -2.35131 2115 ft 319 kts 101°
2026-04-14 16:33 49.19580 -2.31728 1803 ft 309 kts 78°
2026-04-14 16:33 49.20025 -2.28575 1394 ft 294 kts 81°
2026-04-14 16:33 49.20312 -2.25598 991 ft 272 kts 84°
2026-04-14 16:34 49.20528 -2.22841 645 ft 253 kts 86°
2026-04-14 16:34 49.20740 -2.20271 437 ft 227 kts 86°
2026-04-14 16:34 49.20942 -2.17851 745 ft 245 kts 85°
2026-04-14 16:34 49.21240 -2.15089 1214 ft 278 kts 76°
2026-04-14 16:35 49.21824 -2.12180 2170 ft 294 kts 71°
2026-04-14 16:35 49.22883 -2.09433 3173 ft 310 kts 49°
2026-04-14 16:35 49.24428 -2.06968 3762 ft 338 kts 39°
2026-04-14 16:35 49.26465 -2.05219 3954 ft 322 kts 16°
2026-04-14 16:36 49.28573 -2.04789 4008 ft 294 kts 354°
2026-04-14 16:36 49.30473 -2.05417 4013 ft 270 kts 335°
2026-04-14 16:36 49.32056 -2.06845 4007 ft 261 kts 317°
2026-04-14 16:36 49.33259 -2.08890 4009 ft 257 kts 300°
2026-04-14 16:37 49.34004 -2.11352 4010 ft 254 kts 283°
2026-04-14 16:37 49.34249 -2.14008 4010 ft 251 kts 267°
2026-04-14 16:37 49.33983 -2.16641 4011 ft 250 kts 251°
2026-04-14 16:37 49.33238 -2.19035 4011 ft 249 kts 235°
2026-04-14 16:38 49.32078 -2.20994 4011 ft 250 kts 219°
2026-04-14 16:38 49.30648 -2.22522 4012 ft 250 kts 215°
2026-04-14 16:38 49.29203 -2.24014 3855 ft 251 kts 215°
2026-04-14 16:38 49.27775 -2.25489 3481 ft 249 kts 215°
2026-04-14 16:39 49.26343 -2.26969 3074 ft 248 kts 215°
2026-04-14 16:39 49.24919 -2.28443 2684 ft 246 kts 215°
2026-04-14 16:39 49.23496 -2.29915 2185 ft 248 kts 214°
2026-04-14 16:39 49.22063 -2.31289 1990 ft 234 kts 202°
2026-04-14 16:40 49.20533 -2.31409 2001 ft 224 kts 162°
2026-04-14 16:40 49.19342 -2.29943 2011 ft 219 kts 120°
2026-04-14 16:40 49.19147 -2.27795 2034 ft 203 kts 74°
2026-04-14 16:40 49.19875 -2.26017 1902 ft 196 kts 56°
2026-04-14 16:41 49.20355 -2.24146 1412 ft 183 kts 75°
2026-04-14 16:41 49.20611 -2.22186 547 ft 186 kts 88°
2026-04-14 16:41 49.20740 -2.20345 319 ft 168 kts 88°
2026-04-14 16:41 49.20865 -2.18727 284 ft 123 kts 85°